This is the latest recevied weather packets stored in our database for station/object AB4KY. If no packets are shown the sender has not sent any weather packets the latest 10 day(s).
| Time | Temp. | Humidity | Pressure | Rain* | Wind** | Luminosity | Snow |
|---|---|---|---|---|---|---|---|
| 1777852148 | 16.11° C | 46% | 1011.3 hPa | 0 mm | - | 17 W/m² | - |
| 1777851846 | 16.11° C | 48% | 1011.1 hPa | 0 mm | - | 22 W/m² | - |
| 1777851543 | 16.67° C | 44% | 1011.3 hPa | 0 mm | - | 22 W/m² | - |
| 1777851239 | 16.11° C | 44% | 1011.3 hPa | 0 mm | - | 29 W/m² | - |
| 1777850936 | 16.67° C | 45% | 1011.4 hPa | 0 mm | - | 26 W/m² | - |
| 1777850633 | 16.67° C | 45% | 1011.1 hPa | 0 mm | - | 43 W/m² | - |
| 1777850331 | 16.11° C | 44% | 1011 hPa | 0 mm | - | 28 W/m² | - |
| 1777850028 | 16.67° C | 46% | 1011.3 hPa | 0 mm | - | 22 W/m² | - |
| 1777849724 | 16.67° C | 43% | 1011.4 hPa | 0 mm | - | 29 W/m² | - |
| 1777849421 | 17.22° C | 43% | 1011.5 hPa | 0 mm | - | 32 W/m² | - |
| 1777849119 | 17.78° C | 42% | 1011.4 hPa | 0 mm | - | 111 W/m² | - |
| 1777848814 | 17.22° C | 42% | 1011.6 hPa | 0 mm | - | 40 W/m² | - |
| 1777848511 | 17.22° C | 42% | 1011.8 hPa | 0 mm | - | 84 W/m² | - |
| 1777848208 | 17.22° C | 40% | 1012 hPa | 0 mm | - | 70 W/m² | - |
| 1777847906 | 16.67° C | 42% | 1012.3 hPa | 0 mm | - | 77 W/m² | - |
| 1777847603 | 16.67° C | 43% | 1012 hPa | 0 mm | - | 72 W/m² | - |
| 1777847299 | 16.67° C | 41% | 1012.2 hPa | 0 mm | - | 67 W/m² | - |
| 1777846997 | 17.22° C | 39% | 1012.3 hPa | 0 mm | - | 66 W/m² | - |
| 1777846695 | 17.22° C | 41% | 1012.5 hPa | 0 mm | - | 84 W/m² | - |
| 1777846394 | 17.22° C | 42% | 1012.9 hPa | 0 mm | - | 98 W/m² | - |
| 1777846089 | 17.22° C | 42% | 1012.5 hPa | 0 mm | - | 86 W/m² | - |
| 1777845786 | 17.22° C | 43% | 1012.7 hPa | 0 mm | - | 60 W/m² | - |
| 1777845483 | 17.78° C | 43% | 1012.5 hPa | 0 mm | - | 97 W/m² | - |
| 1777845180 | 17.22° C | 41% | 1012.5 hPa | 0 mm | - | 78 W/m² | - |
| 1777844878 | 17.22° C | 42% | 1012.7 hPa | 0 mm | - | 53 W/m² | - |
* Rain latest hour (hover to see other rain measurements)
** Current wind speed in m/s (hover to see current wind gust speed)